Date String (YYYY-MM-DD hh:mm:ss) UTC,Instrument flags,Ambient pressure (hPa),Sample flow (lpm),Bypass flow (lpm),Sample temperature (°C),Ambient temperature (°C),ASC tube jacket temperature (°C),LED temperature (°C),Box temperature (°C),Sample RH (%),Span deviation,Mass concentration (μg/m³),Mass concentration (μg/m³),Mass concentration (μg/m³)
DateTimeUTC,F1_M11,P_M11,Q1_M11,Q2_M11,T1_M11,T2_M11,T3_M11,T4_M11,T5_M11,U1_M11,ZSPAN_M11,X0_M11,X2_M11,X1_M11
2023-01-19 08:00:00,,0818.4,5.02,0.00,22.3,20.7,00.0,31.1,23.9,06.6,0000.0,0001.59,0000.91,0000.72
2023-01-19 08:01:00,,0818.4,4.99,0.00,22.2,20.2,00.0,31.1,23.7,06.6,0000.0,0001.67,0000.92,0000.71
2023-01-19 08:02:00,,0818.4,5.00,0.00,22.1,19.8,00.0,31.0,23.5,06.7,0000.0,0001.75,0000.92,0000.70
2023-01-19 08:03:00,,0818.5,5.00,0.00,22.0,19.6,00.0,31.0,23.4,06.6,0000.0,0002.25,0000.90,0000.67
2023-01-19 08:04:00,,0818.5,5.00,0.00,21.9,19.3,00.0,31.0,23.3,06.6,0000.0,0002.32,0000.86,0000.65
2023-01-19 08:05:00,,0818.5,4.99,0.00,21.8,19.0,00.0,30.9,23.1,06.7,0000.0,0002.29,0000.85,0000.63
2023-01-19 08:06:00,,0818.6,5.00,0.00,21.7,19.5,00.0,30.8,23.1,06.7,0000.0,0002.35,0000.85,0000.63
2023-01-19 08:07:00,,0818.6,5.00,0.00,21.8,20.9,00.0,30.8,23.5,06.7,0000.0,0002.49,0000.89,0000.62
2023-01-19 08:08:00,,0818.6,5.01,0.00,21.9,22.0,00.0,30.8,23.8,06.7,0000.0,0002.66,0000.91,0000.61
2023-01-19 08:09:00,,0818.6,5.00,0.00,22.0,22.1,00.0,30.8,23.9,06.7,0000.0,0002.67,0000.89,0000.61
2023-01-19 08:10:00,,0818.7,4.99,0.00,22.0,21.7,00.0,30.8,23.9,06.8,0000.0,0002.76,0000.87,0000.60
2023-01-19 08:11:00,,0818.7,5.00,0.00,22.0,21.3,00.0,30.8,23.8,06.9,0000.0,0003.01,0000.90,0000.61
2023-01-19 08:12:00,,0818.6,5.00,0.00,22.0,21.0,00.0,30.9,23.7,06.7,0000.0,0003.07,0000.91,0000.62
2023-01-19 08:13:00,,0818.5,5.00,0.00,22.0,20.5,00.0,30.8,23.6,06.6,0000.0,0002.97,0000.88,0000.62
2023-01-19 08:14:00,,0818.5,5.00,0.00,21.9,20.1,00.0,30.8,23.5,06.7,0000.0,0002.56,0000.87,0000.63
2023-01-19 08:15:00,,0818.5,5.02,0.00,21.9,19.8,00.0,30.8,23.3,06.7,0000.0,0002.18,0000.86,0000.63
2023-01-19 08:16:00,,0818.5,5.00,0.00,21.8,19.7,00.0,30.8,23.3,06.8,0000.0,0002.21,0000.88,0000.64
2023-01-19 08:17:00,,0818.6,4.99,0.00,21.7,19.5,00.0,30.7,23.2,06.8,0000.0,0002.17,0000.88,0000.64
2023-01-19 08:18:00,,0818.7,5.00,0.00,21.6,19.1,00.0,30.7,23.0,06.8,0000.0,0002.03,0000.83,0000.63
2023-01-19 08:19:00,,0818.7,5.02,0.00,21.6,19.8,00.0,30.6,23.1,06.8,0000.0,0001.87,0000.80,0000.63
2023-01-19 08:20:00,,0818.7,4.99,0.00,21.7,21.0,00.0,30.6,23.4,06.8,0000.0,0001.80,0000.79,0000.61
2023-01-19 08:21:00,,0818.7,5.00,0.00,21.8,22.0,00.0,30.6,23.7,06.8,0000.0,0001.77,0000.80,0000.60
2023-01-19 08:22:00,,0818.8,5.00,0.00,21.9,22.1,00.0,30.7,23.8,06.8,0000.0,0001.36,0000.78,0000.59
2023-01-19 08:23:00,,0818.7,5.01,0.00,21.9,21.3,00.0,30.7,23.6,06.7,0000.0,0001.18,0000.75,0000.57
2023-01-19 08:24:00,,0818.7,5.00,0.00,21.8,20.6,00.0,30.7,23.4,06.8,0000.0,0001.18,0000.75,0000.56
2023-01-19 08:25:00,,0818.7,4.98,0.00,21.7,19.9,00.0,30.7,23.1,06.8,0000.0,0001.24,0000.75,0000.55
2023-01-19 08:26:00,,0818.6,5.01,0.00,21.6,19.4,00.0,30.6,23.0,06.9,0000.0,0001.28,0000.76,0000.54
2023-01-19 08:27:00,,0818.6,5.02,0.00,21.5,19.0,00.0,30.6,22.8,06.8,0000.0,0001.62,0000.75,0000.53
2023-01-19 08:28:00,,0818.6,4.99,0.00,21.4,18.7,00.0,30.5,22.6,06.7,0000.0,0001.66,0000.74,0000.53
2023-01-19 08:29:00,,0818.6,5.01,0.00,21.4,19.2,00.0,30.5,22.7,06.5,0000.0,0001.65,0000.73,0000.53
2023-01-19 08:30:00,,0818.6,5.01,0.00,21.5,20.8,00.0,30.4,23.1,06.6,0000.0,0001.71,0000.77,0000.52
2023-01-19 08:31:00,,0818.7,4.99,0.00,21.6,21.8,00.0,30.4,23.4,06.6,0000.0,0001.73,0000.79,0000.53
2023-01-19 08:32:00,,0818.7,5.00,0.00,21.7,22.1,00.0,30.5,23.6,06.6,0000.0,0001.69,0000.77,0000.53
2023-01-19 08:33:00,,0818.7,5.01,0.00,21.7,21.2,00.0,30.5,23.4,06.4,0000.0,0001.64,0000.74,0000.53
2023-01-19 08:34:00,,0818.7,4.98,0.00,21.6,20.4,00.0,30.5,23.1,06.3,0000.0,0001.61,0000.72,0000.52
2023-01-19 08:35:00,,0818.7,5.01,0.00,21.5,19.6,00.0,30.5,22.9,06.5,0000.0,0001.63,0000.71,0000.51
2023-01-19 08:36:00,,0818.7,4.98,0.00,21.4,19.1,00.0,30.4,22.7,06.6,0000.0,0001.69,0000.71,0000.50
2023-01-19 08:37:00,,0818.7,5.01,0.00,21.3,18.6,00.0,30.4,22.5,06.7,0000.0,0001.67,0000.70,0000.50
2023-01-19 08:38:00,,0818.8,5.00,0.00,21.2,18.4,00.0,30.3,22.3,06.8,0000.0,0001.29,0000.69,0000.50
2023-01-19 08:39:00,,0818.7,5.02,0.00,21.2,19.7,00.0,30.3,22.6,07.0,0000.0,0001.27,0000.70,0000.49
2023-01-19 08:40:00,,0818.7,5.00,0.00,21.3,21.1,00.0,30.2,23.0,06.9,0000.0,0001.28,0000.70,0000.49
2023-01-19 08:41:00,,0818.7,5.00,0.00,21.5,22.1,00.0,30.3,23.3,06.8,0000.0,0001.37,0000.69,0000.50
2023-01-19 08:42:00,,0818.7,4.99,0.00,21.5,21.6,00.0,30.3,23.3,06.8,0000.0,0001.34,0000.67,0000.50
2023-01-19 08:43:00,,0818.8,5.02,0.00,21.5,20.6,00.0,30.3,23.0,06.9,0000.0,0001.32,0000.66,0000.49
2023-01-19 08:44:00,,0818.8,4.99,0.00,21.4,19.8,00.0,30.3,22.8,06.9,0000.0,0002.02,0000.67,0000.49
2023-01-19 08:45:00,,0818.9,5.00,0.00,21.3,19.1,00.0,30.3,22.6,07.0,0000.0,0002.03,0000.66,0000.50
2023-01-19 08:46:00,,0818.9,4.99,0.00,21.1,18.6,00.0,30.2,22.4,07.0,0000.0,0002.02,0000.67,0000.51
2023-01-19 08:47:00,,0818.8,5.00,0.00,21.0,18.3,00.0,30.2,22.2,07.1,0000.0,0001.99,0000.67,0000.52
2023-01-19 08:48:00,,0818.8,5.02,0.00,21.0,19.5,00.0,30.1,22.5,07.1,0000.0,0001.98,0000.68,0000.53
2023-01-19 08:49:00,,0818.8,4.99,0.00,21.2,21.0,00.0,30.1,22.9,07.0,0000.0,0002.05,0000.70,0000.54
2023-01-19 08:50:00,,0818.8,5.00,0.00,21.3,22.0,00.0,30.1,23.2,06.9,0000.0,0001.94,0000.67,0000.55
2023-01-19 08:51:00,,0818.8,4.98,0.00,21.4,21.8,00.0,30.2,23.2,06.7,0000.0,0001.93,0000.66,0000.55
2023-01-19 08:52:00,,0818.9,5.01,0.00,21.4,20.7,00.0,30.2,22.9,06.6,0000.0,0001.91,0000.66,0000.54
2023-01-19 08:53:00,,0818.9,5.00,0.00,21.3,19.9,00.0,30.2,22.7,06.7,0000.0,0002.22,0000.65,0000.54
2023-01-19 08:54:00,,0818.8,4.99,0.00,21.2,19.2,00.0,30.2,22.5,06.8,0000.0,0003.20,0000.68,0000.54
2023-01-19 08:55:00,,0818.8,5.03,0.00,21.1,18.8,00.0,30.1,22.3,06.9,0000.0,0002.61,0000.69,0000.54
2023-01-19 08:56:00,,0818.9,5.00,0.00,21.0,18.4,00.0,30.1,22.2,06.8,0000.0,0002.52,0000.70,0000.54
2023-01-19 08:57:00,,0818.8,4.98,0.00,20.9,18.6,00.0,30.0,22.2,06.9,0000.0,0002.50,0000.69,0000.54
2023-01-19 08:58:00,,0818.9,5.00,0.00,21.0,20.2,00.0,30.0,22.5,06.8,0000.0,0002.52,0000.68,0000.53
2023-01-19 08:59:00,,0818.9,5.01,0.00,21.1,21.5,00.0,30.0,22.9,06.7,0000.0,0002.73,0000.71,0000.53
